Wind_Speed
42 43 44 44 43 42 41 41 41 41 42 41 40 39 39 37 36 37 36 35 35 35 36 37 37 37 37 37 37 37 37 38 38 39 38 38 38 38 38 38 38 39 40
41 42 43 43 43 41 41 42 42 41 42 42 41 41 40 38 38 38 38 37 36 36 37 38 38 38 38 38 38 38 39 40 41 41 41 40 39 39 39 40 40 41 41
39 41 41 43 44 42 42 42 43 44 43 43 43 43 42 41 40 40 38 38 38 37 38 40 40 40 41 41 41 40 41 42 43 43 42 43 43 42 41 42 42 43 42
38 40 41 42 43 42 42 42 44 44 44 45 45 44 44 42 41 40 40 40 40 40 40 41 43 43 43 43 43 42 42 44 44 44 44 45 45 45 44 43 43 42 43
36 38 40 41 41 42 43 42 44 45 45 46 46 45 45 44 43 42 41 42 43 43 43 43 43 44 44 44 44 44 44 45 45 45 45 45 45 45 44 43 42 41 42
35 36 38 40 40 41 42 43 43 44 45 45 46 46 46 45 45 45 44 42 43 43 43 44 45 45 45 45 46 46 45 45 45 45 46 45 44 44 44 43 42 42 42
33 35 37 38 39 40 41 42 43 43 44 45 46 48 48 47 47 47 46 44 43 44 45 46 45 46 46 47 47 47 46 45 45 45 45 44 44 44 44 44 43 43 43
31 34 36 37 38 39 42 42 43 43 43 44 46 47 48 47 48 48 47 46 45 44 46 46 45 46 47 47 46 45 45 44 44 44 44 44 44 45 45 45 44 44 43
31 33 35 37 38 38 40 41 43 43 43 44 44 45 46 46 47 47 47 47 45 43 44 44 44 44 46 46 46 45 46 45 43 43 43 44 45 44 44 45 45 45 44
31 32 33 34 36 36 37 39 41 42 42 44 44 44 44 45 46 46 46 45 45 44 43 43 43 44 44 45 46 46 45 45 44 44 44 44 44 44 44 44 45 46 45
29 31 31 33 34 35 37 38 39 40 40 40 41 43 43 43 44 45 45 45 45 44 44 44 44 43 43 44 45 45 46 46 45 45 45 45 45 45 45 45 45 45 45
29 31 31 32 33 34 36 37 38 39 40 40 40 41 42 42 43 43 44 44 44 43 43 43 43 43 43 43 43 44 44 44 45 45 47 47 46 46 46 45 45 45 45
30 32 32 32 33 34 35 36 38 39 40 40 39 39 40 40 41 42 43 44 45 45 44 43 42 42 42 42 42 42 44 44 45 46 46 46 46 46 46 45 45 44 44
28 30 33 34 34 34 35 36 38 39 39 39 39 39 39 40 41 42 43 44 45 45 44 44 44 44 44 42 42 42 44 44 45 45 45 44 45 45 45 45 44 44 44
28 29 31 32 33 34 34 36 37 38 38 38 38 39 40 40 42 43 43 44 44 45 45 45 44 45 45 44 43 43 43 43 43 43 43 43 43 43 43 43 42 42 43
27 29 31 32 32 33 34 34 35 37 38 38 39 40 40 41 41 42 43 44 45 46 47 46 45 45 45 44 44 43 43 43 42 40 41 42 42 41 41 41 41 42 42
28 29 29 30 31 32 33 34 35 36 37 38 39 40 40 41 41 42 42 43 43 44 44 45 45 45 45 45 44 43 42 41 40 39 40 41 40 39 38 39 40 41 41
27 28 28 28 29 30 32 33 34 35 36 38 40 41 41 41 41 41 42 41 42 42 42 43 44 44 43 43 42 41 41 40 39 39 40 39 38 37 37 38 40 41 41
25 26 26 28 29 30 31 32 33 34 35 36 38 39 40 40 41 40 40 40 40 41 41 42 41 41 41 41 41 40 39 38 38 39 38 37 37 37 38 39 39 39 38
24 25 25 27 28 29 30 30 32 33 34 35 36 37 39 39 40 40 39 39 39 39 39 40 40 39 39 39 38 38 37 37 38 37 37 36 37 37 38 39 38 38 37
24 25 25 25 27 28 29 30 32 32 33 34 35 35 36 36 37 38 39 39 38 38 38 39 39 38 37 37 36 36 35 35 36 36 35 35 36 37 37 38 37 37 36
25 26 26 26 27 28 29 30 30 31 32 32 34 34 34 34 35 35 36 37 37 37 38 38 37 37 36 35 34 34 33 34 34 34 35 35 36 36 36 36 36 35 35
26 27 27 28 28 29 29 30 30 30 31 31 32 33 34 34 34 34 34 33 35 35 35 35 35 35 34 33 33 32 32 32 32 33 34 35 35 36 36 36 36 36 35
27 27 28 29 29 30 31 31 31 31 31 31 31 31 31 32 33 33 33 32 33 33 34 34 34 34 33 32 32 32 32 32 32 32 32 34 35 35 36 35 35 34 34
27 28 29 30 30 30 31 31 32 31 31 31 31 31 31 31 31 31 30 32 32 32 33 33 33 33 32 32 32 31 30 31 31 31 31 32 33 33 33 32 32 32 32
27 28 28 30 30 31 31 32 32 31 31 31 31 30 30 29 30 30 30 30 31 32 32 32 32 31 31 31 31 31 31 31 31 31 30 31 31 31 31 31 31 30 29
Wind_Direction
233 230 229 228 228 230 231 232 232 234 235 236 238 239 241 243 245 246 247 249 251 255 256 256 259 261 264 267 270 273 275 277 278 279 280 281 282 284 284 285 287 288 289
232 229 227 227 228 230 232 232 232 233 235 237 238 239 242 244 245 247 249 250 253 256 257 257 259 262 265 268 271 273 276 277 278 279 279 280 281 282 283 284 285 287 288
232 229 228 228 228 231 233 233 233 234 237 238 239 240 242 244 246 248 249 251 253 256 258 259 260 263 266 268 271 274 276 277 278 278 279 280 281 282 282 283 284 286 287
231 229 229 228 229 232 233 234 234 235 237 238 239 241 243 245 247 250 251 252 254 257 259 261 262 264 266 268 270 272 274 276 277 277 279 281 282 283 283 284 285 286 286
230 230 230 229 229 231 233 234 235 236 238 239 241 243 245 246 248 251 253 253 255 257 260 262 263 264 267 269 271 272 274 274 275 277 279 281 282 283 284 285 286 285 286
231 231 231 230 231 233 235 236 237 238 240 242 243 245 246 248 250 252 255 256 256 258 260 262 263 264 266 268 270 272 274 275 276 277 279 280 282 282 283 284 285 285 286
234 233 232 234 234 235 237 238 239 240 241 243 245 246 247 248 251 253 256 257 258 260 262 263 264 266 266 267 268 270 272 274 276 277 278 279 281 281 282 283 285 286 286
236 236 236 236 237 238 238 240 241 242 243 245 247 248 247 248 252 254 256 257 259 261 263 264 266 268 269 268 267 269 272 275 276 277 277 279 280 281 282 283 285 286 285
239 239 238 239 240 240 240 242 243 244 245 248 249 250 251 252 252 253 256 258 259 261 263 264 267 268 268 268 268 270 273 274 274 275 277 279 279 281 283 284 285 286 285
240 240 240 241 242 241 242 243 245 246 248 250 251 251 253 253 253 255 258 260 262 263 265 266 268 269 269 270 271 271 273 274 274 274 277 279 279 280 282 284 284 286 286
241 241 242 243 243 243 243 244 246 248 249 252 252 252 253 254 255 256 258 260 262 265 267 268 269 270 270 270 272 272 273 274 274 275 277 277 279 281 282 284 285 286 286
242 242 244 245 245 245 246 245 246 248 250 253 254 254 255 256 257 257 258 261 263 266 269 270 271 270 270 271 273 273 273 274 274 276 276 277 279 280 282 284 284 284 286
246 246 247 247 247 247 248 248 248 250 252 254 255 256 256 256 257 259 259 261 263 266 268 270 271 270 271 271 272 273 274 275 275 276 276 277 278 280 281 282 283 283 285
250 250 250 250 249 251 252 252 251 251 253 255 256 256 257 258 258 260 262 263 265 266 268 269 271 272 272 273 272 274 275 276 276 276 276 276 279 280 282 283 283 284 286
252 253 254 252 252 253 254 255 253 252 253 256 257 257 258 260 261 262 264 266 266 267 268 269 270 272 273 273 274 275 276 276 276 274 275 277 279 281 283 283 284 286 288
256 257 257 255 254 255 255 254 254 254 255 256 257 258 260 262 263 264 266 267 267 268 267 268 270 271 272 273 274 274 275 275 274 275 276 278 280 280 282 283 285 287 288
257 259 259 257 257 257 256 255 255 256 257 258 259 260 261 262 264 265 266 267 268 268 267 267 269 271 272 273 273 274 274 272 272 275 277 278 278 279 281 283 286 287 288
256 259 259 258 257 258 258 257 257 259 260 261 260 261 262 263 265 267 267 268 268 268 268 269 269 270 271 272 272 273 272 270 272 274 275 275 276 277 281 284 286 287 288
258 258 259 259 259 260 260 261 261 262 263 263 263 264 264 265 267 267 267 267 268 268 269 269 270 270 270 270 271 272 270 269 272 273 274 274 275 278 281 285 286 286 286
258 258 260 261 261 262 263 264 265 264 265 265 266 266 267 267 267 266 267 267 269 269 269 270 271 271 270 269 269 267 268 271 271 271 273 274 276 278 281 283 286 286 285
258 259 261 262 263 263 265 266 268 268 269 268 268 268 269 268 267 267 268 268 269 268 269 271 271 270 269 268 267 267 268 271 272 273 273 275 278 279 281 284 285 286 286
261 260 261 263 264 265 266 268 269 270 270 270 269 269 270 269 268 269 270 269 268 268 269 270 269 268 268 267 265 266 269 271 272 273 274 275 278 279 281 283 284 285 285
265 264 263 264 265 266 268 269 270 271 271 272 272 271 271 270 270 271 271 269 268 268 269 268 267 266 265 264 264 267 269 272 273 273 275 276 279 280 282 284 285 284 284
265 265 265 266 267 267 269 270 272 273 273 274 274 273 272 271 271 270 269 269 270 269 268 266 265 264 263 263 265 267 270 272 275 276 277 278 279 280 281 283 284 284 283
268 267 267 268 268 268 269 271 272 272 273 274 273 273 272 272 272 271 270 269 268 268 267 265 264 264 263 265 268 269 270 272 273 276 280 281 282 281 283 283 284 285 284
270 268 267 267 268 268 269 272 273 273 273 273 272 273 272 272 272 271 270 271 268 267 266 266 265 264 266 268 268 268 269 269 272 277 279 280 282 283 285 285 286 287 286
Height
5702 5707 5713 5719 5724 5730 5734 5739 5743 5747 5751 5755 5759 5762 5765 5768 5771 5773 5774 5776 5777 5779 5781 5782 5783 5784 5785 5785 5785 5785 5784 5783 5781 5780 5779 5777 5775 5773 5770 5768 5766 5763 5761
5693 5699 5704 5710 5716 5721 5726 5730 5736 5740 5743 5747 5751 5754 5757 5760 5762 5765 5766 5768 5769 5771 5772 5773 5775 5776 5776 5777 5776 5776 5775 5774 5772 5770 5769 5768 5767 5764 5762 5759 5757 5754 5751
5685 5691 5696 5702 5708 5713 5718 5723 5727 5731 5735 5739 5742 5745 5748 5751 5753 5756 5758 5760 5761 5763 5763 5765 5766 5767 5767 5767 5767 5766 5765 5764 5763 5760 5759 5757 5757 5755 5754 5750 5748 5745 5742
5678 5683 5688 5694 5700 5705 5710 5715 5719 5723 5727 5730 5733 5737 5740 5743 5745 5747 5749 5751 5752 5753 5754 5755 5756 5757 5757 5757 5757 5756 5755 5754 5753 5751 5749 5748 5746 5744 5743 5742 5738 5735 5732
5672 5676 5681 5687 5692 5697 5702 5706 5710 5714 5718 5721 5724 5728 5731 5734 5736 5737 5739 5741 5742 5744 5745 5745 5746 5746 5747 5747 5746 5746 5745 5743 5742 5741 5739 5737 5735 5733 5731 5730 5729 5725 5722
5665 5670 5674 5679 5684 5688 5693 5697 5701 5705 5709 5712 5715 5718 5721 5724 5726 5728 5729 5731 5732 5734 5734 5735 5735 5735 5736 5736 5735 5735 5734 5733 5732 5730 5729 5727 5725 5723 5721 5719 5718 5715 5713
5659 5663 5667 5672 5676 5680 5684 5688 5692 5696 5699 5702 5705 5709 5712 5715 5716 5718 5719 5721 5722 5723 5724 5724 5724 5724 5724 5724 5724 5723 5723 5722 5721 5720 5718 5717 5715 5713 5711 5709 5707 5705 5703
5653 5657 5660 5664 5668 5671 5675 5680 5683 5687 5690 5693 5696 5698 5701 5704 5706 5708 5709 5710 5711 5712 5713 5713 5713 5713 5713 5713 5712 5712 5712 5711 5711 5709 5708 5706 5705 5703 5701 5699 5696 5694 5693
5647 5650 5653 5656 5659 5663 5667 5671 5674 5677 5680 5683 5685 5688 5690 5693 5695 5697 5698 5699 5700 5701 5702 5702 5702 5702 5702 5702 5701 5701 5700 5700 5700 5699 5697 5696 5694 5692 5690 5688 5685 5683 5681
5641 5643 5646 5649 5652 5655 5659 5662 5665 5668 5671 5673 5675 5678 5680 5682 5684 5686 5688 5689 5690 5690 5691 5691 5691 5691 5691 5690 5690 5690 5689 5689 5689 5688 5687 5685 5683 5681 5679 5677 5675 5672 5670
5635 5637 5639 5642 5645 5647 5650 5653 5656 5658 5661 5663 5665 5668 5670 5672 5673 5675 5676 5678 5679 5680 5681 5681 5681 5680 5680 5680 5679 5679 5678 5678 5677 5676 5675 5674 5672 5670 5668 5666 5664 5662 5659
5628 5631 5633 5635 5637 5640 5642 5644 5647 5649 5651 5653 5656 5657 5659 5661 5663 5664 5666 5667 5668 5669 5670 5670 5670 5670 5670 5669 5668 5668 5667 5667 5666 5665 5664 5663 5661 5659 5657 5655 5653 5651 5648
5622 5624 5626 5628 5630 5632 5633 5636 5638 5640 5642 5644 5646 5647 5649 5651 5652 5654 5655 5657 5658 5659 5660 5660 5659 5659 5658 5658 5658 5657 5656 5655 5655 5654 5653 5652 5650 5648 5646 5644 5642 5640 5638
5615 5617 5618 5620 5622 5623 5625 5627 5629 5630 5632 5634 5636 5638 5639 5641 5642 5644 5645 5646 5647 5648 5649 5649 5649 5648 5648 5647 5647 5646 5645 5644 5643 5643 5642 5640 5639 5637 5635 5633 5631 5629 5626
5608 5610 5611 5612 5614 5615 5617 5618 5619 5621 5623 5624 5626 5628 5629 5631 5632 5633 5634 5635 5636 5636 5637 5637 5637 5637 5636 5636 5635 5635 5634 5633 5632 5632 5631 5630 5628 5626 5624 5622 5620 5618 5616
5601 5602 5603 5604 5605 5607 5608 5609 5610 5612 5613 5615 5616 5618 5619 5621 5621 5622 5623 5624 5624 5624 5625 5626 5626 5625 5625 5624 5624 5623 5623 5622 5621 5620 5620 5619 5617 5615 5613 5611 5609 5607 5605
5593 5594 5595 5596 5597 5598 5599 5600 5601 5603 5604 5605 5606 5608 5609 5610 5611 5611 5611 5612 5612 5612 5613 5613 5613 5613 5613 5612 5612 5611 5611 5611 5610 5609 5609 5608 5607 5605 5603 5601 5599 5596 5593
5585 5586 5587 5588 5588 5589 5590 5591 5592 5593 5594 5595 5596 5597 5598 5599 5599 5599 5600 5600 5600 5601 5601 5601 5601 5601 5601 5600 5600 5600 5600 5599 5599 5598 5598 5597 5596 5595 5593 5591 5589 5586 5583
5578 5579 5579 5580 5580 5581 5581 5582 5583 5583 5584 5585 5586 5586 5587 5587 5588 5588 5588 5588 5589 5589 5589 5589 5589 5590 5589 5589 5589 5589 5589 5588 5588 5588 5587 5587 5586 5584 5582 5580 5578 5575 5573
5570 5571 5571 5571 5572 5572 5572 5573 5573 5574 5574 5575 5575 5575 5576 5576 5576 5576 5577 5577 5577 5578 5578 5578 5578 5578 5578 5578 5578 5578 5578 5578 5578 5577 5577 5576 5575 5573 5571 5569 5567 5565 5562
5563 5563 5563 5564 5564 5564 5564 5564 5564 5564 5564 5564 5565 5565 5565 5565 5565 5566 5565 5566 5566 5566 5567 5567 5567 5567 5567 5567 5567 5567 5567 5567 5567 5567 5566 5565 5564 5562 5561 5558 5556 5554 5551
5555 5555 5555 5556 5556 5556 5556 5556 5556 5555 5555 5555 5555 5555 5555 5555 5555 5555 5555 5555 5555 5555 5555 5556 5556 5556 5556 5556 5557 5557 5557 5557 5557 5556 5556 5555 5553 5552 5550 5548 5546 5544 5541
5547 5547 5547 5548 5548 5547 5547 5547 5547 5546 5546 5546 5545 5545 5544 5544 5544 5544 5544 5544 5544 5544 5544 5545 5545 5545 5546 5546 5547 5547 5548 5547 5546 5546 5546 5544 5543 5542 5540 5538 5536 5533 5531
5538 5538 5539 5539 5539 5538 5538 5538 5538 5537 5537 5536 5535 5535 5535 5534 5534 5534 5534 5534 5534 5534 5534 5534 5535 5535 5536 5537 5537 5538 5538 5538 5537 5536 5535 5534 5533 5531 5530 5527 5525 5523 5521
5530 5530 5530 5530 5530 5530 5529 5529 5529 5528 5528 5527 5526 5526 5525 5525 5525 5524 5524 5524 5524 5524 5524 5524 5524 5525 5526 5527 5528 5528 5528 5528 5528 5527 5526 5525 5523 5522 5520 5518 5516 5514 5512
5522 5521 5521 5521 5521 5520 5520 5520 5519 5518 5518 5518 5517 5517 5516 5516 5516 5515 5515 5513 5514 5514 5514 5514 5515 5515 5516 5517 5518 5518 5518 5518 5518 5517 5517 5515 5514 5513 5511 5509 5507 5505 5504